Wright-Patt AFB, OH

9:41 PM EDT on July 25, 2017 (GMT -0400)
Wright-Patterson Air Force Base

Weather History for KFFO - January, 2014

Change the Weather History Date:

Saturday, January 11, 2014

  Actual Average Record
Temperature  
Mean Temperature 43 °F -  
Max Temperature 51 °F 34 °F 60 °F (2013)
Min Temperature 35 °F 18 °F -2 °F (1997)
Degree Days  
Heating Degree Days 22    
Moisture  
Dew Point 43 °F    
Average Humidity 89    
Maximum Humidity 100    
Minimum Humidity 75    
Precipitation  
Precipitation 0.39 in - - ()
Sea Level Pressure  
Sea Level Pressure 29.60 in    
Wind  
Wind Speed 13 mph (SSW)    
Max Wind Speed 25 mph    
Max Gust Speed 34 mph    
Visibility 10 miles    
Events Rain    
Averages and records for this station are not official NWS values.
T = Trace of Precipitation, MM = Missing Value Source: NWS Daily Summary

Daily Weather History Graph

Daily Weather History Graph

Search for Another Location

Airport or City:

Trip Planner

Search our weather history database for the weather conditions in past years. The results will help you decide how hot, cold, wet, or windy it might be!

Date:

Astronomy

Jan. 11, 2014 Rise Set
Actual Time 7:56 AM EST 5:31 PM EST
Civil Twilight 7:27 AM EST 6:01 PM EST
Nautical Twilight 6:53 AM EST 6:35 PM EST
Astronomical Twilight 6:21 AM EST 7:07 PM EST
Moon 2:15 PM EST (1/11) 4:00 AM EST (1/11)
Length of Visible Light 10h 34m
Length of Day
9h 34m
Waxing Gibbous, 83% of the Moon is Illuminated
Jan 11
Waxing Gibbous
Jan 15
Full
Jan 24
Last Quarter
Jan 30
New
Feb 6
First Quarter

Hourly Weather History & Observations

Time (EST) Temp. Windchill Dew Point Humidity Pressure Visibility Wind Dir Wind Speed Gust Speed Precip Events Conditions
12:08 AM 48.2 °F - 46.4 °F 93% 29.73 in 10.0 mi South 12.7 mph - N/A   Overcast
12:18 AM 48.2 °F - 46.4 °F 93% 29.73 in 10.0 mi South 8.1 mph - N/A   Overcast
12:58 AM 48.7 °F - 46.6 °F 92% 29.71 in 10.0 mi SSE 9.2 mph - 0.01 in   Light Drizzle
1:28 AM 48.2 °F - 46.4 °F 93% 29.68 in 9.0 mi South 11.5 mph - N/A Rain Rain
1:34 AM 48.2 °F - 46.4 °F 93% 29.68 in 9.0 mi South 11.5 mph - N/A Rain Light Rain
1:55 AM 50.0 °F - 48.2 °F 94% 29.67 in 10.0 mi South 11.5 mph - N/A Rain Light Rain
1:58 AM 49.1 °F - 47.5 °F 94% 29.70 in 10.0 mi South 11.5 mph - 0.09 in Rain Light Rain
2:08 AM 50.0 °F - 48.2 °F 94% 29.67 in 9.0 mi South 11.5 mph - N/A Rain Rain
2:18 AM 50.0 °F - 48.2 °F 94% 29.65 in 6.0 mi South 11.5 mph - N/A Rain Rain
2:28 AM 50.0 °F - 48.2 °F 94% 29.66 in 10.0 mi South 11.5 mph - N/A Rain Light Rain
2:38 AM 50.0 °F - 48.2 °F 94% 29.65 in 10.0 mi South 8.1 mph - N/A Rain Light Rain
2:58 AM 49.3 °F - 48.0 °F 95% 29.66 in 10.0 mi South 10.4 mph - 0.12 in   Light Drizzle
3:58 AM 49.1 °F - 48.0 °F 96% 29.62 in 10.0 mi SSE 16.1 mph - 0.07 in Rain Light Rain
4:38 AM 50.0 °F - 48.2 °F 94% 29.57 in 10.0 mi South 12.7 mph - N/A Rain Light Rain
4:58 AM 49.1 °F - 47.7 °F 95% 29.59 in 10.0 mi South 9.2 mph - 0.06 in   Drizzle
5:08 AM 50.0 °F - 48.2 °F 94% 29.56 in 10.0 mi South 9.2 mph - N/A   Light Drizzle
5:38 AM 48.2 °F - 48.2 °F 100% 29.55 in 10.0 mi South 10.4 mph - N/A   Overcast
5:58 AM 49.3 °F - 48.0 °F 95% 29.57 in 10.0 mi South 8.1 mph - 0.00 in   Overcast
6:08 AM 50.0 °F - 48.2 °F 94% 29.55 in 10.0 mi South 8.1 mph - N/A   Overcast
6:18 AM 50.0 °F - 48.2 °F 94% 29.53 in 10.0 mi South 6.9 mph - N/A   Overcast
6:28 AM 48.2 °F - 48.2 °F 100% 29.53 in 10.0 mi South 8.1 mph - N/A   Mostly Cloudy
6:58 AM 49.1 °F - 47.7 °F 95% 29.52 in 10.0 mi SSE 11.5 mph - N/A   Mostly Cloudy
7:28 AM 50.0 °F - 48.2 °F 94% 29.50 in 10.0 mi South 11.5 mph - N/A   Mostly Cloudy
7:38 AM 50.0 °F - 48.2 °F 94% 29.49 in 10.0 mi South 10.4 mph - N/A   Overcast
7:48 AM 50.0 °F - 48.2 °F 94% 29.50 in 10.0 mi South 12.7 mph - N/A   Overcast
7:58 AM 50.2 °F - 48.7 °F 95% 29.51 in 10.0 mi South 12.7 mph - 0.01 in   Overcast
8:08 AM 50.0 °F - 48.2 °F 94% 29.49 in 10.0 mi South 12.7 mph - N/A   Overcast
8:48 AM 50.0 °F - 50.0 °F 100% 29.49 in 10.0 mi SSW 10.4 mph - N/A   Overcast
8:58 AM 50.2 °F - 49.1 °F 96% 29.49 in 10.0 mi South 12.7 mph - 0.00 in   Overcast
9:47 AM 50.0 °F - 50.0 °F 100% 29.48 in 7.0 mi SSW 16.1 mph - N/A   Overcast
9:58 AM 50.7 °F - 49.6 °F 96% 29.49 in 10.0 mi SSW 16.1 mph - 0.00 in   Overcast
10:18 AM 51.8 °F - 50.0 °F 94% 29.51 in 4.0 mi SSW 21.9 mph 27.6 mph N/A Rain Light Rain
10:28 AM 51.8 °F - 48.2 °F 88% 29.51 in 4.0 mi SSW 20.7 mph 27.6 mph N/A Rain Light Rain
10:58 AM 50.7 °F - 48.6 °F 92% 29.51 in 10.0 mi WSW 18.4 mph 25.3 mph 0.02 in   Mostly Cloudy
11:18 AM 48.2 °F - 44.6 °F 87% 29.50 in 10.0 mi WSW 21.9 mph 28.8 mph N/A   Mostly Cloudy
11:40 AM 48.2 °F - 44.6 °F 87% 29.50 in 10.0 mi WSW 13.8 mph 27.6 mph N/A   Mostly Cloudy
11:58 AM 48.7 °F - 44.1 °F 84% 29.50 in 10.0 mi WSW 13.8 mph 23.0 mph N/A   Mostly Cloudy
12:38 PM 44.6 °F 36.4 °F 39.2 °F 81% 29.51 in 10.0 mi WSW 20.7 mph 32.2 mph N/A Rain Light Rain
12:58 PM 44.4 °F 37.2 °F 38.7 °F 80% 29.51 in 10.0 mi WSW 16.1 mph 25.3 mph 0.01 in   Mostly Cloudy
1:28 PM 44.6 °F 36.4 °F 37.4 °F 76% 29.51 in 10.0 mi WSW 20.7 mph 34.5 mph N/A   Overcast
1:58 PM 43.9 °F 34.7 °F 36.5 °F 75% 29.52 in 10.0 mi WSW 24.2 mph 31.1 mph N/A   Overcast
2:18 PM 42.8 °F 34.0 °F 35.6 °F 76% 29.52 in 10.0 mi WSW 20.7 mph 27.6 mph N/A   Overcast
2:28 PM 41.0 °F 30.7 °F 35.6 °F 81% 29.53 in 10.0 mi West 25.3 mph 33.4 mph N/A   Overcast
2:58 PM 40.3 °F 31.0 °F 34.5 °F 80% 29.55 in 10.0 mi WSW 19.6 mph 32.2 mph N/A   Mostly Cloudy
3:58 PM 40.1 °F 30.5 °F 33.1 °F 76% 29.59 in 10.0 mi WSW 20.7 mph 32.2 mph N/A   Overcast
4:53 PM 37.4 °F 26.6 °F 32.0 °F 81% 29.61 in 10.0 mi WSW 21.9 mph 31.1 mph N/A   Overcast
4:58 PM 38.1 °F 27.9 °F 32.7 °F 81% 29.61 in 10.0 mi WSW 20.7 mph - N/A   Overcast
5:58 PM 37.0 °F 26.4 °F 32.2 °F 83% 29.64 in 10.0 mi West 20.7 mph 32.2 mph N/A   Overcast
6:58 PM 36.0 °F 25.3 °F 30.7 °F 81% 29.68 in 10.0 mi WSW 19.6 mph 26.5 mph N/A   Overcast
7:58 PM 36.0 °F 26.7 °F 30.4 °F 80% 29.71 in 10.0 mi WSW 15.0 mph 18.4 mph N/A   Overcast
8:58 PM 35.8 °F 26.9 °F 29.3 °F 77% 29.76 in 10.0 mi WSW 13.8 mph - N/A   Overcast
9:58 PM 35.6 °F 27.1 °F 29.5 °F 78% 29.78 in 10.0 mi SW 12.7 mph - N/A   Overcast
10:38 PM 35.6 °F 27.5 °F 30.2 °F 81% 29.77 in 10.0 mi SW 11.5 mph - N/A   Overcast
10:58 PM 35.2 °F 28.1 °F 29.5 °F 80% 29.79 in 10.0 mi SW 9.2 mph - N/A   Overcast
11:48 PM 35.6 °F 27.1 °F 30.2 °F 81% 29.78 in 10.0 mi SW 12.7 mph - N/A   Overcast
11:58 PM 35.4 °F 27.8 °F 30.0 °F 81% 29.80 in 10.0 mi SW 10.4 mph - N/A   Overcast